TimeCEST,TemperatureF,Dew PointF,Humidity,Sea Level PressureIn,VisibilityMPH,Wind Direction,Wind SpeedMPH,Gust SpeedMPH,PrecipitationIn,Events,Conditions,WindDirDegrees,DateUTC
12:50 AM,55.4,53.6,94,29.83,6.2,SW,2.3,-,N/A,,Partly Cloudy,220,2013-04-05 22:50:00
1:50 AM,53.6,51.8,94,29.83,6.2,ENE,2.3,-,N/A,,Partly Cloudy,60,2013-04-05 23:50:00
2:50 AM,50.0,50.0,100,29.83,6.2,Variable,2.3,-,N/A,,Partly Cloudy,0,2013-04-06 00:50:00
3:50 AM,50.0,48.2,94,29.83,6.2,North,4.6,-,N/A,,Partly Cloudy,10,2013-04-06 01:50:00
4:50 AM,48.2,46.4,93,29.80,6.2,Variable,2.3,-,N/A,,Partly Cloudy,0,2013-04-06 02:50:00
5:50 AM,48.2,46.4,93,29.80,6.2,East,4.6,-,N/A,,Partly Cloudy,80,2013-04-06 03:50:00
6:50 AM,48.2,46.4,93,29.80,-9999.0,East,5.8,-,N/A,,Clear,90,2013-04-06 04:50:00
7:50 AM,51.8,50.0,94,29.80,-9999.0,East,6.9,-,N/A,,Clear,90,2013-04-06 05:50:00
8:50 AM,57.2,51.8,82,29.77,-9999.0,East,6.9,-,N/A,,Clear,90,2013-04-06 06:50:00
9:50 AM,62.6,51.8,68,29.77,-9999.0,East,18.4,-,N/A,,Clear,90,2013-04-06 07:50:00
10:50 AM,66.2,51.8,60,29.77,-9999.0,East,19.6,-,N/A,,Clear,90,2013-04-06 08:50:00
11:50 AM,68.0,50.0,52,29.77,-9999.0,East,18.4,-,N/A,,Clear,90,2013-04-06 09:50:00
12:50 PM,69.8,50.0,49,29.74,-9999.0,East,15.0,-,N/A,,Clear,80,2013-04-06 10:50:00
1:50 PM,71.6,50.0,46,29.74,-9999.0,East,8.1,-,N/A,,Clear,90,2013-04-06 11:50:00
2:50 PM,64.4,53.6,68,29.71,-9999.0,WSW,9.2,-,N/A,,Clear,250,2013-04-06 12:50:00
3:50 PM,64.4,53.6,68,29.71,-9999.0,SW,5.8,-,N/A,,Clear,230,2013-04-06 13:50:00
4:50 PM,64.4,55.4,73,29.68,-9999.0,Variable,3.5,-,N/A,,Clear,0,2013-04-06 14:50:00
5:50 PM,66.2,46.4,49,29.68,-9999.0,East,19.6,-,N/A,,Clear,90,2013-04-06 15:50:00
6:50 PM,62.6,50.0,63,29.68,-9999.0,East,16.1,-,N/A,,Clear,90,2013-04-06 16:50:00
7:50 PM,60.8,50.0,68,29.68,-9999.0,ENE,12.7,-,N/A,,Clear,60,2013-04-06 17:50:00
8:50 PM,60.8,50.0,68,29.71,-9999.0,NE,12.7,-,N/A,,Clear,40,2013-04-06 18:50:00
9:50 PM,59.0,50.0,72,29.71,-9999.0,NE,11.5,-,N/A,,Clear,40,2013-04-06 19:50:00
10:50 PM,59.0,50.0,72,29.71,-9999.0,NNE,10.4,-,N/A,,Clear,30,2013-04-06 20:50:00
11:50 PM,59.0,50.0,72,29.68,-9999.0,NE,8.1,-,N/A,,Clear,40,2013-04-06 21:50:00